Location: Doughton Park
(36.4224°N, 81.1835°W)
Time: 07:31:58
(UTC-04:00)

ISS - All Passes

Search period start: 29 July 2015 00:00
Search period end: 08 August 2015 00:00
Orbit: 401 x 403 km, 51.6° (Epoch: 29 July)

Date Brightness Start Highest point End Pass type
(mag) Time Alt. Az. Time Alt. Az. Time Alt. Az.
29 Jul - 00:04:18 10° W 00:06:51 21° NNW 00:09:24 10° NNE night (unlit)
29 Jul - 04:57:12 10° NNW 04:59:42 20° NNE 05:02:15 10° E visible
29 Jul - 06:33:10 10° WNW 06:36:17 41° SW 06:39:21 10° SSE daylight
29 Jul - 21:35:08 10° S 21:37:27 19° SE 21:39:52 10° E visible
29 Jul - 23:10:43 10° WSW 23:13:44 35° NW 23:16:47 10° NNE visible
30 Jul - 04:04:50 10° N 04:06:30 13° NNE 04:08:12 10° NE visible
30 Jul - 05:40:06 10° NW 05:43:22 87° NE 05:46:38 10° SE visible
30 Jul - 22:17:28 10° SW 22:20:43 72° NW 22:23:58 10° NE visible
30 Jul - 23:56:14 10° NW 23:57:39 12° NNW 23:59:02 10° N visible
31 Jul - 04:47:16 10° NW 04:50:22 41° NE 04:53:28 10° ESE visible
31 Jul - 06:24:27 10° W 06:26:35 16° SW 06:28:37 10° SSW daylight
31 Jul - 21:24:37 10° SSW 21:27:47 50° SE 21:30:57 10° ENE visible
31 Jul - 23:02:03 10° WNW 23:04:25 18° NNW 23:06:45 10° NNE visible
01 Aug - 03:54:35 10° NNW 03:57:15 23° NNE 03:59:57 10° E visible
01 Aug - 05:30:46 10° WNW 05:33:45 33° SW 05:36:42 10° SSE visible
01 Aug - 20:32:18 10° S 20:34:54 23° SE 20:37:34 10° ENE daylight
01 Aug - 22:08:20 10° W 22:11:15 30° NNW 22:14:11 10° NNE visible
02 Aug - 03:02:07 10° N 03:04:03 15° NNE 03:06:02 10° ENE night (unlit)
02 Aug - 04:37:35 10° NW 04:40:50 76° SW 04:44:05 10° SE visible
02 Aug - 19:41:11 10° SE 19:42:05 11° SE 19:43:08 10° ESE daylight
02 Aug - 21:14:58 10° WSW 21:18:11 58° NW 21:21:25 10° NE visible
02 Aug - 22:54:12 10° NW 22:55:13 11° NNW 22:56:09 10° N visible
03 Aug - 02:10:22 10° NNE 02:10:45 10° NNE 02:11:12 10° NNE night (unlit)
03 Aug - 03:44:39 10° NW 03:47:51 49° NE 03:51:01 10° ESE night (unlit)
03 Aug - 05:22:20 10° W 05:24:00 13° SW 05:25:32 10° SSW night (unlit)
03 Aug - 20:22:00 10° SW 20:25:13 63° SE 20:28:26 10° NE daylight
03 Aug - 21:59:46 10° WNW 22:01:56 16° NNW 22:04:03 10° NNE visible
04 Aug - 02:51:56 10° NNW 02:54:45 26° NNE 02:57:35 10° E night (unlit)
04 Aug - 04:28:20 10° WNW 04:31:09 27° SW 04:33:57 10° SSE night (unlit)
04 Aug - 19:29:30 10° SSW 19:32:18 28° SE 19:35:10 10° ENE daylight
04 Aug - 21:05:55 10° W 21:08:44 26° NNW 21:11:31 10° NNE visible
05 Aug - 01:59:23 10° NNW 02:01:33 17° NNE 02:03:46 10° ENE night (unlit)
05 Aug - 03:35:02 10° NW 03:38:15 60° SW 03:41:28 10° SE night (unlit)
05 Aug - 18:37:48 10° SSE 18:39:27 14° SE 18:41:13 10° E daylight
05 Aug - 20:12:28 10° WSW 20:15:37 47° NW 20:18:47 10° NE daylight
06 Aug - 01:07:13 10° N 01:08:16 11° NNE 01:09:21 10° NE visible
06 Aug - 02:42:02 10° NW 02:45:17 61° NE 02:48:30 10° ESE night (unlit)
06 Aug - 04:20:32 10° WSW 04:21:22 11° SW 04:22:02 10° SW night (unlit)
06 Aug - 19:19:22 10° SW 19:22:36 79° SE 19:25:52 10° NE daylight
06 Aug - 20:57:29 10° WNW 20:59:24 14° NNW 21:01:17 10° N visible
07 Aug - 01:49:14 10° NNW 01:52:11 31° NE 01:55:08 10° E night (unlit)
07 Aug - 03:25:53 10° WNW 03:28:31 22° SW 03:31:05 10° S night (unlit)
07 Aug - 18:26:41 10° SSW 18:29:39 34° SE 18:32:40 10° ENE daylight
07 Aug - 20:03:30 10° W 20:06:10 22° NNW 20:08:48 10° NNE daylight
